{"data":{"norad_id":68676,"intl_designator":"2026-077Q","name":"STARLINK-37312","alt_names":[],"object_type":"PAYLOAD","status":"ACTIVE","operator":null,"country":"US","launch_date":"2026-04-11","launch_site_code":"AFWTR","launch_vehicle":null,"mission":null,"orbit_class":"UNKNOWN","rcs_meters":null,"size_class":null,"mass_kg":null,"dimensions":null,"purposes":["comms"],"wikipedia_slug":null,"has_3d_model":false,"image_url":null,"decayed_at":null,"tle_current":{"epoch":"2026-05-25T02:45:57.002112Z","epoch_age_seconds":58378,"freshness":"FRESH","line1":"1 68676U 26077Q   26145.11524308  .00016186  00000+0  50247-3 0  9999","line2":"2 68676  97.2861  16.7399 0001421  96.1296 264.0108 15.33453172  6870","mean_motion":15.33453172,"eccentricity":0.0001421,"inclination_deg":97.2861,"raan_deg":16.7399,"arg_perigee_deg":96.1296,"mean_anomaly_deg":264.0108,"bstar":0.00050247,"rev_number":687,"period_min":93.905704216705,"perigee_km":464.54637696583,"apogee_km":466.49134396137,"semimajor_km":6843.6558604636,"source":"CELESTRAK","updated_at":"2026-05-25T13:38:21.994544Z"}}}